Time,TemperatureF,DewpointF,PressureIn,WindDirection,WindDirectionDegrees,WindSpeedMPH,WindSpeedGustMPH,Humidity,HourlyPrecipIn,Conditions,Clouds,dailyrainin,SoftwareType,DateUTC
2013-01-09 00:03:00,70.0,-99.9,29.99,East,84,0.0,0.0,-999,0.00,,,0.00,,2013-01-09 05:03:00,
2013-01-09 00:12:00,70.0,-99.9,29.99,East,84,0.0,0.0,-999,0.00,,,0.00,,2013-01-09 05:12:00,
2013-01-09 00:22:00,70.0,-99.9,29.99,East,84,0.0,0.0,-999,0.00,,,0.00,,2013-01-09 05:22:00,
2013-01-09 00:33:00,70.0,-99.9,29.99,East,84,0.0,0.0,-999,0.00,,,0.00,,2013-01-09 05:33:00,
2013-01-09 00:43:00,70.0,-99.9,29.99,East,84,0.0,0.0,-999,0.00,,,0.00,,2013-01-09 05:43:00,
2013-01-09 00:53:00,70.0,-99.9,29.99,East,84,0.0,0.0,-999,0.00,,,0.00,,2013-01-09 05:53:00,
2013-01-09 01:02:00,70.0,-99.9,29.99,East,84,0.0,0.0,-999,0.00,,,0.00,,2013-01-09 06:02:00,
2013-01-09 01:12:00,70.0,-99.9,29.99,East,84,0.0,0.0,-999,0.00,,,0.00,,2013-01-09 06:12:00,
2013-01-09 01:22:00,70.0,-99.9,29.99,East,84,0.0,0.0,-999,0.00,,,0.00,,2013-01-09 06:22:00,
2013-01-09 01:32:00,70.0,-99.9,29.99,East,84,0.0,0.0,-999,0.00,,,0.00,,2013-01-09 06:32:00,
2013-01-09 01:43:00,70.0,-99.9,29.99,East,84,0.0,0.0,-999,0.00,,,0.00,,2013-01-09 06:43:00,
2013-01-09 01:53:00,70.0,-99.9,30.00,East,84,0.0,0.0,-999,0.00,,,0.00,,2013-01-09 06:53:00,
2013-01-09 02:02:00,70.0,-99.9,29.99,East,84,0.0,0.0,-999,0.00,,,0.00,,2013-01-09 07:02:00,
2013-01-09 02:12:00,70.0,-99.9,29.99,East,84,0.0,0.0,-999,0.00,,,0.00,,2013-01-09 07:12:00,
2013-01-09 02:22:00,68.0,-99.9,29.99,East,84,0.0,0.0,-999,0.00,,,0.00,,2013-01-09 07:22:00,
2013-01-09 02:32:00,68.0,-99.9,29.99,East,84,0.0,0.0,-999,0.00,,,0.00,,2013-01-09 07:32:00,
2013-01-09 02:43:00,68.0,-99.9,29.99,East,84,0.0,0.0,-999,0.00,,,0.00,,2013-01-09 07:43:00,
2013-01-09 02:53:00,68.0,-99.9,29.99,East,84,0.0,0.0,-999,0.00,,,0.00,,2013-01-09 07:53:00,
2013-01-09 03:02:00,67.0,-99.9,29.99,East,84,0.0,0.0,-999,0.00,,,0.00,,2013-01-09 08:02:00,
2013-01-09 03:12:00,67.0,-99.9,29.99,East,84,0.0,0.0,-999,0.00,,,0.00,,2013-01-09 08:12:00,
2013-01-09 03:22:00,67.0,-99.9,29.99,East,84,0.0,0.0,-999,0.00,,,0.00,,2013-01-09 08:22:00,
2013-01-09 03:32:00,67.0,-99.9,29.99,East,84,0.0,0.0,-999,0.00,,,0.00,,2013-01-09 08:32:00,
2013-01-09 03:43:00,67.0,-99.9,29.99,East,84,0.0,0.0,-999,0.00,,,0.00,,2013-01-09 08:43:00,
2013-01-09 03:53:00,67.0,-99.9,29.99,East,84,0.0,0.0,-999,0.00,,,0.00,,2013-01-09 08:53:00,
2013-01-09 04:03:00,67.0,-99.9,29.99,East,84,0.0,0.0,-999,0.00,,,0.00,,2013-01-09 09:03:00,
2013-01-09 04:12:00,67.0,-99.9,29.99,East,84,0.0,0.0,-999,0.00,,,0.00,,2013-01-09 09:12:00,
2013-01-09 04:22:00,68.0,-99.9,29.98,East,86,0.0,0.0,-999,0.00,,,0.00,,2013-01-09 09:22:00,
2013-01-09 04:32:00,68.0,-99.9,29.98,East,86,0.0,0.0,-999,0.00,,,0.00,,2013-01-09 09:32:00,
2013-01-09 04:42:00,68.0,-99.9,29.98,East,86,0.0,0.0,-999,0.00,,,0.00,,2013-01-09 09:42:00,
2013-01-09 04:53:00,68.0,-99.9,29.98,ESE,107,0.0,0.0,-999,0.00,,,0.00,,2013-01-09 09:53:00,
2013-01-09 05:02:00,69.0,-99.9,29.99,ESE,121,2.0,0.0,-999,0.00,,,0.00,,2013-01-09 10:02:00,
2013-01-09 05:12:00,69.0,-99.9,29.99,ESE,121,2.0,0.0,-999,0.00,,,0.00,,2013-01-09 10:12:00,
2013-01-09 05:22:00,69.0,-99.9,29.99,SE,127,0.0,0.0,-999,0.00,,,0.00,,2013-01-09 10:22:00,
2013-01-09 05:32:00,69.0,-99.9,29.99,East,97,0.0,0.0,-999,0.00,,,0.00,,2013-01-09 10:32:00,
2013-01-09 05:42:00,69.0,-99.9,29.99,East,97,0.0,0.0,-999,0.00,,,0.00,,2013-01-09 10:42:00,
2013-01-09 05:53:00,69.0,-99.9,29.99,ESE,105,4.0,0.0,-999,0.00,,,0.00,,2013-01-09 10:53:00,
2013-01-09 06:02:00,69.0,-99.9,30.00,East,101,1.0,0.0,-999,0.00,,,0.00,,2013-01-09 11:02:00,
2013-01-09 06:12:00,69.0,-99.9,30.00,East,101,1.0,0.0,-999,0.00,,,0.00,,2013-01-09 11:12:00,
2013-01-09 06:22:00,69.0,-99.9,30.00,East,80,0.0,0.0,-999,0.00,,,0.00,,2013-01-09 11:22:00,
2013-01-09 06:33:00,69.0,-99.9,30.00,East,80,0.0,0.0,-999,0.00,,,0.00,,2013-01-09 11:33:00,
2013-01-09 06:43:00,69.0,-99.9,30.00,East,80,0.0,0.0,-999,0.00,,,0.00,,2013-01-09 11:43:00,
2013-01-09 06:53:00,68.0,-99.9,30.01,East,79,2.0,0.0,-999,0.00,,,0.00,,2013-01-09 11:53:00,
2013-01-09 07:03:00,69.0,-99.9,30.01,East,82,0.0,0.0,-999,0.00,,,0.00,,2013-01-09 12:03:00,
2013-01-09 07:13:00,69.0,-99.9,30.01,East,82,0.0,0.0,-999,0.00,,,0.00,,2013-01-09 12:13:00,
2013-01-09 07:23:00,68.0,-99.9,30.02,NE,34,0.0,0.0,-999,0.00,,,0.00,,2013-01-09 12:23:00,
2013-01-09 07:33:00,68.0,-99.9,30.02,East,94,0.0,0.0,-999,0.00,,,0.00,,2013-01-09 12:33:00,
2013-01-09 07:43:00,68.0,-99.9,30.02,East,94,0.0,0.0,-999,0.00,,,0.00,,2013-01-09 12:43:00,
2013-01-09 07:53:00,68.0,-99.9,30.03,East,93,1.0,0.0,-999,0.00,,,0.00,,2013-01-09 12:53:00,
2013-01-09 08:03:00,68.0,-99.9,30.03,ESE,108,2.0,0.0,-999,0.00,,,0.00,,2013-01-09 13:03:00,
2013-01-09 08:12:00,68.0,-99.9,30.03,ESE,108,2.0,0.0,-999,0.00,,,0.00,,2013-01-09 13:12:00,
2013-01-09 08:23:00,68.0,-99.9,30.04,East,80,0.0,0.0,-999,0.00,,,0.00,,2013-01-09 13:23:00,
2013-01-09 08:33:00,69.0,-99.9,30.05,SE,136,6.0,0.0,-999,0.00,,,0.00,,2013-01-09 13:33:00,
2013-01-09 08:43:00,69.0,-99.9,30.05,SE,136,6.0,0.0,-999,0.00,,,0.00,,2013-01-09 13:43:00,
2013-01-09 08:53:00,69.0,-99.9,30.06,East,97,7.0,7.0,-999,0.00,,,0.00,,2013-01-09 13:53:00,
2013-01-09 09:03:00,70.0,-99.9,30.06,SE,128,8.0,8.0,-999,0.00,,,0.00,,2013-01-09 14:03:00,
2013-01-09 09:12:00,71.0,-99.9,30.06,ENE,76,4.0,5.0,-999,0.00,,,0.00,,2013-01-09 14:12:00,
2013-01-09 09:23:00,71.0,-99.9,30.06,ENE,76,4.0,5.0,-999,0.00,,,0.00,,2013-01-09 14:23:00,
2013-01-09 09:33:00,71.0,-99.9,30.07,SSE,148,3.0,0.0,-999,0.00,,,0.00,,2013-01-09 14:33:00,
2013-01-09 09:43:00,71.0,-99.9,30.07,SSE,148,3.0,0.0,-999,0.00,,,0.00,,2013-01-09 14:43:00,
2013-01-09 09:53:00,73.0,-99.9,30.07,SSE,162,7.0,12.0,-999,0.00,,,0.00,,2013-01-09 14:53:00,
2013-01-09 10:04:00,72.0,-99.9,30.07,East,87,8.0,13.0,-999,0.00,,,0.00,,2013-01-09 15:04:00,
2013-01-09 10:13:00,72.0,-99.9,30.07,East,87,8.0,13.0,-999,0.00,,,0.00,,2013-01-09 15:13:00,
2013-01-09 10:23:00,73.0,-99.9,30.07,ESE,122,5.0,7.0,-999,0.00,,,0.00,,2013-01-09 15:23:00,
2013-01-09 10:33:00,75.0,-99.9,30.07,SE,141,6.0,6.0,-999,0.00,,,0.00,,2013-01-09 15:33:00,
2013-01-09 10:43:00,75.0,-99.9,30.07,SE,141,6.0,6.0,-999,0.00,,,0.00,,2013-01-09 15:43:00,
2013-01-09 10:53:00,74.0,-99.9,30.07,ESE,118,10.0,10.0,-999,0.00,,,0.00,,2013-01-09 15:53:00,
2013-01-09 11:04:00,74.0,-99.9,30.07,SSE,163,6.0,11.0,-999,0.00,,,0.00,,2013-01-09 16:04:00,
2013-01-09 11:12:00,74.0,-99.9,30.07,SSE,163,6.0,11.0,-999,0.00,,,0.00,,2013-01-09 16:12:00,
2013-01-09 11:23:00,75.0,-99.9,30.07,ESE,107,7.0,7.0,-999,0.00,,,0.00,,2013-01-09 16:23:00,
2013-01-09 11:34:00,76.0,-99.9,30.06,SE,128,12.0,12.0,-999,0.00,,,0.00,,2013-01-09 16:34:00,
2013-01-09 11:43:00,76.0,-99.9,30.06,SE,128,12.0,12.0,-999,0.00,,,0.00,,2013-01-09 16:43:00,
2013-01-09 11:53:00,75.0,-99.9,30.06,ESE,121,9.0,12.0,-999,0.00,,,0.00,,2013-01-09 16:53:00,
2013-01-09 12:03:00,76.0,-99.9,30.06,ESE,121,9.0,9.0,-999,0.00,,,0.00,,2013-01-09 17:03:00,
2013-01-09 12:12:00,76.0,-99.9,30.06,ESE,121,9.0,9.0,-999,0.00,,,0.00,,2013-01-09 17:12:00,
2013-01-09 12:23:00,77.0,-99.9,30.05,ESE,115,9.0,9.0,-999,0.00,,,0.00,,2013-01-09 17:23:00,
2013-01-09 12:33:00,77.0,-99.9,30.05,ESE,121,10.0,10.0,-999,0.00,,,0.00,,2013-01-09 17:33:00,
2013-01-09 12:43:00,77.0,-99.9,30.05,ESE,121,10.0,10.0,-999,0.00,,,0.00,,2013-01-09 17:43:00,
2013-01-09 12:53:00,78.0,-99.9,30.04,SE,135,9.0,9.0,-999,0.00,,,0.00,,2013-01-09 17:53:00,
2013-01-09 13:03:00,77.0,-99.9,30.04,South,177,9.0,9.0,-999,0.00,,,0.00,,2013-01-09 18:03:00,
2013-01-09 13:13:00,77.0,-99.9,30.04,South,177,9.0,9.0,-999,0.00,,,0.00,,2013-01-09 18:13:00,
2013-01-09 13:24:00,77.0,-99.9,30.03,ESE,122,9.0,9.0,-999,0.00,,,0.00,,2013-01-09 18:24:00,
2013-01-09 13:33:00,79.0,-99.9,30.03,SE,146,7.0,7.0,-999,0.00,,,0.00,,2013-01-09 18:33:00,
2013-01-09 13:44:00,79.0,-99.9,30.03,SE,146,7.0,7.0,-999,0.00,,,0.00,,2013-01-09 18:44:00,
2013-01-09 13:53:00,77.0,-99.9,30.03,ESE,122,10.0,10.0,-999,0.00,,,0.00,,2013-01-09 18:53:00,
2013-01-09 14:03:00,78.0,-99.9,30.02,ESE,118,8.0,8.0,-999,0.00,,,0.00,,2013-01-09 19:03:00,
2013-01-09 14:13:00,78.0,-99.9,30.02,ESE,118,8.0,8.0,-999,0.00,,,0.00,,2013-01-09 19:13:00,
2013-01-09 14:23:00,79.0,-99.9,30.01,SE,145,8.0,8.0,-999,0.00,,,0.00,,2013-01-09 19:23:00,
2013-01-09 14:33:00,78.0,-99.9,30.01,SE,139,7.0,7.0,-999,0.00,,,0.00,,2013-01-09 19:33:00,
2013-01-09 14:43:00,78.0,-99.9,30.01,SE,139,7.0,7.0,-999,0.00,,,0.00,,2013-01-09 19:43:00,
2013-01-09 14:53:00,78.0,-99.9,30.01,SSE,163,10.0,10.0,-999,0.00,,,0.00,,2013-01-09 19:53:00,
2013-01-09 15:03:00,80.0,-99.9,30.01,SSE,158,7.0,8.0,-999,0.00,,,0.00,,2013-01-09 20:03:00,
2013-01-09 15:12:00,80.0,-99.9,30.01,SSE,158,7.0,8.0,-999,0.00,,,0.00,,2013-01-09 20:12:00,
2013-01-09 15:23:00,78.0,-99.9,30.01,SSE,158,9.0,9.0,-999,0.00,,,0.00,,2013-01-09 20:23:00,
2013-01-09 15:33:00,79.0,-99.9,30.01,SSE,165,9.0,10.0,-999,0.00,,,0.00,,2013-01-09 20:33:00,
2013-01-09 15:43:00,79.0,-99.9,30.01,SSE,165,9.0,10.0,-999,0.00,,,0.00,,2013-01-09 20:43:00,
2013-01-09 15:53:00,79.0,-99.9,30.01,SE,129,8.0,13.0,-999,0.00,,,0.00,,2013-01-09 20:53:00,
2013-01-09 16:04:00,78.0,-99.9,30.01,SSE,166,8.0,10.0,-999,0.00,,,0.00,,2013-01-09 21:04:00,
2013-01-09 16:13:00,78.0,-99.9,30.01,SSE,166,8.0,10.0,-999,0.00,,,0.00,,2013-01-09 21:13:00,
2013-01-09 16:23:00,79.0,-99.9,30.01,ESE,120,8.0,8.0,-999,0.00,,,0.00,,2013-01-09 21:23:00,
2013-01-09 16:33:00,79.0,-99.9,30.01,SE,146,8.0,8.0,-999,0.00,,,0.00,,2013-01-09 21:33:00,
2013-01-09 16:43:00,79.0,-99.9,30.01,SE,146,8.0,8.0,-999,0.00,,,0.00,,2013-01-09 21:43:00,
2013-01-09 16:53:00,78.0,-99.9,30.01,SE,139,6.0,6.0,-999,0.00,,,0.00,,2013-01-09 21:53:00,
2013-01-09 17:03:00,78.0,-99.9,30.02,SE,142,7.0,7.0,-999,0.00,,,0.00,,2013-01-09 22:03:00,
2013-01-09 17:12:00,78.0,-99.9,30.02,SE,142,7.0,7.0,-999,0.00,,,0.00,,2013-01-09 22:12:00,
2013-01-09 17:23:00,78.0,-99.9,30.02,SSE,162,3.0,0.0,-999,0.00,,,0.00,,2013-01-09 22:23:00,
2013-01-09 17:33:00,76.0,-99.9,30.02,ESE,107,6.0,6.0,-999,0.00,,,0.00,,2013-01-09 22:33:00,
2013-01-09 17:43:00,76.0,-99.9,30.02,ESE,107,6.0,6.0,-999,0.00,,,0.00,,2013-01-09 22:43:00,
2013-01-09 17:53:00,76.0,-99.9,30.02,East,87,5.0,5.0,-999,0.00,,,0.00,,2013-01-09 22:53:00,
2013-01-09 18:03:00,75.0,-99.9,30.02,ESE,110,7.0,7.0,-999,0.00,,,0.00,,2013-01-09 23:03:00,
2013-01-09 18:13:00,76.0,-99.9,30.03,ESE,111,6.0,6.0,-999,0.00,,,0.00,,2013-01-09 23:13:00,
2013-01-09 18:23:00,76.0,-99.9,30.03,ESE,111,6.0,6.0,-999,0.00,,,0.00,,2013-01-09 23:23:00,
2013-01-09 18:33:00,74.0,-99.9,30.03,East,82,6.0,8.0,-999,0.00,,,0.00,,2013-01-09 23:33:00,
2013-01-09 18:43:00,74.0,-99.9,30.03,East,82,6.0,8.0,-999,0.00,,,0.00,,2013-01-09 23:43:00,
2013-01-09 18:53:00,74.0,-99.9,30.03,East,90,4.0,5.0,-999,0.00,,,0.00,,2013-01-09 23:53:00,
2013-01-09 19:03:00,73.0,-99.9,30.04,ESE,115,6.0,7.0,-999,0.00,,,0.00,,2013-01-10 00:03:00,
2013-01-09 19:12:00,73.0,-99.9,30.04,ESE,115,6.0,7.0,-999,0.00,,,0.00,,2013-01-10 00:12:00,
2013-01-09 19:22:00,73.0,-99.9,30.04,ESE,110,5.0,5.0,-999,0.00,,,0.00,,2013-01-10 00:22:00,
2013-01-09 19:33:00,73.0,-99.9,30.05,ENE,77,7.0,7.0,-999,0.00,,,0.00,,2013-01-10 00:33:00,
2013-01-09 19:43:00,73.0,-99.9,30.05,ENE,77,7.0,7.0,-999,0.00,,,0.00,,2013-01-10 00:43:00,
2013-01-09 19:53:00,73.0,-99.9,30.05,ENE,77,7.0,7.0,-999,0.00,,,0.00,,2013-01-10 00:53:00,
2013-01-09 20:03:00,72.0,-99.9,30.06,ESE,110,5.0,5.0,-999,0.00,,,0.00,,2013-01-10 01:03:00,
2013-01-09 20:12:00,72.0,-99.9,30.06,ESE,110,5.0,5.0,-999,0.00,,,0.00,,2013-01-10 01:12:00,
2013-01-09 20:22:00,72.0,-99.9,30.06,NE,53,6.0,0.0,-999,0.00,,,0.00,,2013-01-10 01:22:00,
2013-01-09 20:33:00,72.0,-99.9,30.07,East,90,3.0,3.0,-999,0.00,,,0.00,,2013-01-10 01:33:00,
2013-01-09 20:43:00,72.0,-99.9,30.07,East,90,3.0,3.0,-999,0.00,,,0.00,,2013-01-10 01:43:00,
2013-01-09 20:53:00,72.0,-99.9,30.07,East,98,1.0,4.0,-999,0.00,,,0.00,,2013-01-10 01:53:00,
2013-01-09 21:03:00,72.0,-99.9,30.07,East,97,6.0,6.0,-999,0.00,,,0.00,,2013-01-10 02:03:00,
2013-01-09 21:13:00,72.0,-99.9,30.07,East,97,6.0,6.0,-999,0.00,,,0.00,,2013-01-10 02:13:00,
2013-01-09 21:22:00,72.0,-99.9,30.07,ENE,59,6.0,6.0,-999,0.00,,,0.00,,2013-01-10 02:22:00,
2013-01-09 21:33:00,72.0,-99.9,30.08,ESE,121,5.0,6.0,-999,0.00,,,0.00,,2013-01-10 02:33:00,
2013-01-09 21:43:00,72.0,-99.9,30.08,ESE,121,5.0,6.0,-999,0.00,,,0.00,,2013-01-10 02:43:00,
2013-01-09 21:53:00,72.0,-99.9,30.08,ESE,121,5.0,6.0,-999,0.00,,,0.00,,2013-01-10 02:53:00,
2013-01-09 22:03:00,72.0,-99.9,30.08,ENE,75,1.0,0.0,-999,0.00,,,0.00,,2013-01-10 03:03:00,
2013-01-09 22:12:00,72.0,-99.9,30.08,ENE,75,1.0,0.0,-999,0.00,,,0.00,,2013-01-10 03:12:00,
2013-01-09 22:22:00,71.0,-99.9,30.08,ESE,113,3.0,7.0,-999,0.00,,,0.00,,2013-01-10 03:22:00,
2013-01-09 22:33:00,71.0,-99.9,30.08,ENE,58,0.0,0.0,-999,0.00,,,0.00,,2013-01-10 03:33:00,
2013-01-09 22:43:00,71.0,-99.9,30.08,ENE,58,0.0,0.0,-999,0.00,,,0.00,,2013-01-10 03:43:00,
2013-01-09 22:53:00,71.0,-99.9,30.08,ENE,58,0.0,0.0,-999,0.00,,,0.00,,2013-01-10 03:53:00,
2013-01-09 23:03:00,70.0,-99.9,30.09,East,89,0.0,0.0,-999,0.00,,,0.00,,2013-01-10 04:03:00,
2013-01-09 23:12:00,70.0,-99.9,30.09,East,89,0.0,0.0,-999,0.00,,,0.00,,2013-01-10 04:12:00,
2013-01-09 23:22:00,70.0,-99.9,30.09,East,83,0.0,0.0,-999,0.00,,,0.00,,2013-01-10 04:22:00,
2013-01-09 23:32:00,70.0,-99.9,30.09,ENE,73,0.0,0.0,-999,0.00,,,0.00,,2013-01-10 04:32:00,
2013-01-09 23:43:00,70.0,-99.9,30.09,ENE,73,0.0,0.0,-999,0.00,,,0.00,,2013-01-10 04:43:00,
2013-01-09 23:53:00,70.0,-99.9,30.10,ENE,73,0.0,0.0,-999,0.00,,,0.00,,2013-01-10 04:53:00,